,,,PA_Meas_PMT16A,,PR_Meas_QMR101_102,,RH_Meas_QMH101,,SR_Meas_QMS101,,TA_Meas_QMH101,,GenWind,,GenWind,
date,time,status,PA,status,PR,status,RH,status,SR,status,TA,status,DirAvg,status,SpdAvg,
2011-02-16, 00:00:04,VALID,1005.55,VALID,0,INVALID,163.693,VALID,0.100563,VALID,24.4414,VALID,328,VALID,0.460547,
2011-02-16, 00:01:04,VALID,1005.57,VALID,0,INVALID,163.708,VALID,0,VALID,24.4006,VALID,12,VALID,0.694922,
2011-02-16, 00:02:04,VALID,1005.58,VALID,0,INVALID,163.693,VALID,0,VALID,24.3636,VALID,12,VALID,0.647656,
2011-02-16, 00:03:04,VALID,1005.51,VALID,0,INVALID,163.678,VALID,0,VALID,24.3033,VALID,12,VALID,0.476953,
2011-02-16, 00:04:04,VALID,1005.5,VALID,0,INVALID,163.693,VALID,0,VALID,24.2839,VALID,12,VALID,0.439063,
2011-02-16, 00:05:04,VALID,1005.52,VALID,0,INVALID,163.708,VALID,0,VALID,24.2857,VALID,12,VALID,0.377734,
2011-02-16, 00:06:04,VALID,1005.5,VALID,0,INVALID,163.708,VALID,0.100563,VALID,24.2662,VALID,12,VALID,0.466797,
2011-02-16, 00:07:04,VALID,1005.48,VALID,0,INVALID,163.708,VALID,0.100563,VALID,24.2255,VALID,12,VALID,0.535937,
2011-02-16, 00:08:04,VALID,1005.45,VALID,0,INVALID,163.685,VALID,0,VALID,24.2255,VALID,12,VALID,0.578516,
2011-02-16, 00:09:04,VALID,1005.42,VALID,0,INVALID,163.693,VALID,0.100563,VALID,24.2468,VALID,12,VALID,0.476172,
2011-02-16, 00:10:04,VALID,1005.39,VALID,0,INVALID,163.723,VALID,0.100563,VALID,24.206,VALID,12,VALID,0.592188,
2011-02-16, 00:11:04,VALID,1005.38,VALID,0,INVALID,163.685,VALID,0.100563,VALID,24.2078,VALID,11,VALID,0.708594,
2011-02-16, 00:12:04,VALID,1005.34,VALID,0,INVALID,163.701,VALID,0,VALID,24.2078,VALID,11,VALID,0.560547,
2011-02-16, 00:13:04,VALID,1005.34,VALID,0,INVALID,163.67,VALID,0,VALID,24.2273,VALID,11,VALID,0.395703,
2011-02-16, 00:14:04,VALID,1005.33,VALID,0,INVALID,163.708,VALID,0,VALID,24.2273,VALID,11,VALID,0.501953,
2011-02-16, 00:15:04,VALID,1005.33,VALID,0,INVALID,163.685,VALID,0.100563,VALID,24.2291,VALID,11,VALID,0.545313,
2011-02-16, 00:16:04,VALID,1005.32,VALID,0,INVALID,163.693,VALID,0.100563,VALID,24.2078,VALID,11,VALID,0.627734,
2011-02-16, 00:17:04,VALID,1005.29,VALID,0,INVALID,163.693,VALID,0.100563,VALID,24.2273,VALID,11,VALID,0.691406,
2011-02-16, 00:18:04,VALID,1005.28,VALID,0,INVALID,163.693,VALID,0.100563,VALID,24.2078,VALID,11,VALID,0.603516,
2011-02-16, 00:19:04,VALID,1005.28,VALID,0,INVALID,163.693,VALID,0.100563,VALID,24.1865,VALID,11,VALID,0.507031,
2011-02-16, 00:20:04,VALID,1005.24,VALID,0,INVALID,163.685,VALID,0.100563,VALID,24.1689,VALID,11,VALID,0.539453,
2011-02-16, 00:21:04,VALID,1005.25,VALID,0,INVALID,163.693,VALID,0,VALID,24.1884,VALID,11,VALID,0.560156,
2011-02-16, 00:22:04,VALID,1005.24,VALID,0,INVALID,163.693,VALID,0.100563,VALID,24.1884,VALID,11,VALID,0.540625,
2011-02-16, 00:23:04,VALID,1005.24,VALID,0,INVALID,163.685,VALID,0,VALID,24.1671,VALID,11,VALID,0.478125,
2011-02-16, 00:24:04,VALID,1005.22,VALID,0,INVALID,163.708,VALID,0.100563,VALID,24.1494,VALID,11,VALID,0.407422,
2011-02-16, 00:25:04,VALID,1005.23,VALID,0,INVALID,163.708,VALID,0.100563,VALID,24.1494,VALID,11,VALID,0.425,
2011-02-16, 00:26:04,VALID,1005.25,VALID,0,INVALID,163.723,VALID,0,VALID,24.1494,VALID,11,VALID,0.446484,
2011-02-16, 00:27:04,VALID,1005.26,VALID,0,INVALID,163.723,VALID,0,VALID,24.13,VALID,11,VALID,0.326953,
2011-02-16, 00:28:04,VALID,1005.25,VALID,0,INVALID,163.716,VALID,0,VALID,24.1318,VALID,11,VALID,0.460938,
2011-02-16, 00:29:04,VALID,1005.28,VALID,0,INVALID,163.685,VALID,0,VALID,24.1105,VALID,11,VALID,0.372266,
2011-02-16, 00:30:04,VALID,1005.28,VALID,0,INVALID,163.693,VALID,0,VALID,24.091,VALID,11,VALID,0.461719,
2011-02-16, 00:31:04,VALID,1005.28,VALID,0,INVALID,163.739,VALID,0,VALID,24.1123,VALID,11,VALID,0.451172,
2011-02-16, 00:32:04,VALID,1005.28,VALID,0,INVALID,163.693,VALID,0,VALID,24.1123,VALID,11,VALID,0.476172,
2011-02-16, 00:33:04,VALID,1005.25,VALID,0,INVALID,163.708,VALID,0,VALID,24.091,VALID,11,VALID,0.526172,
2011-02-16, 00:34:04,VALID,1005.26,VALID,0,INVALID,163.701,VALID,0,VALID,24.1123,VALID,10,VALID,0.583594,
2011-02-16, 00:35:04,VALID,1005.21,VALID,0,INVALID,163.662,VALID,0,VALID,24.0929,VALID,7,VALID,0.630078,
2011-02-16, 00:36:04,VALID,1005.19,VALID,0,INVALID,163.693,VALID,0,VALID,24.0929,VALID,5,VALID,0.652344,
2011-02-16, 00:37:04,VALID,1005.18,VALID,0,INVALID,163.701,VALID,0,VALID,24.0734,VALID,5,VALID,0.648828,
2011-02-16, 00:38:04,VALID,1005.11,VALID,0,INVALID,163.708,VALID,0,VALID,24.0326,VALID,5,VALID,0.566016,
2011-02-16, 00:39:04,VALID,1005.13,VALID,0,INVALID,163.731,VALID,0,VALID,24.0132,VALID,5,VALID,0.614453,
2011-02-16, 00:40:04,VALID,1005.1,VALID,0,INVALID,163.693,VALID,0,VALID,24.0345,VALID,5,VALID,0.537109,
2011-02-16, 00:41:04,VALID,1005.08,VALID,0,INVALID,163.739,VALID,0,VALID,23.9937,VALID,5,VALID,0.633984,
2011-02-16, 00:42:04,VALID,1005.04,VALID,0,INVALID,163.701,VALID,0,VALID,23.9937,VALID,5,VALID,0.594531,
2011-02-16, 00:43:04,VALID,1005.03,VALID,0,INVALID,163.716,VALID,0,VALID,23.9955,VALID,5,VALID,0.607031,
2011-02-16, 00:44:04,VALID,1005,VALID,0,INVALID,163.701,VALID,0,VALID,23.9937,VALID,5,VALID,0.561328,
2011-02-16, 00:45:04,VALID,1004.99,VALID,0,INVALID,163.708,VALID,0,VALID,23.9937,VALID,5,VALID,0.668359,
2011-02-16, 00:46:04,VALID,1004.95,VALID,0,INVALID,163.701,VALID,0,VALID,24.015,VALID,5,VALID,0.771484,
2011-02-16, 00:47:04,VALID,1004.94,VALID,0,INVALID,163.716,VALID,0,VALID,24.015,VALID,5,VALID,0.539844,
2011-02-16, 00:48:04,VALID,1004.93,VALID,0,INVALID,163.716,VALID,0,VALID,23.9937,VALID,5,VALID,0.526953,
2011-02-16, 00:49:04,VALID,1004.9,VALID,0,INVALID,163.716,VALID,0,VALID,23.9937,VALID,5,VALID,0.639453,
2011-02-16, 00:50:04,VALID,1004.92,VALID,0,INVALID,163.716,VALID,0,VALID,24.015,VALID,5,VALID,0.483984,
2011-02-16, 00:51:04,VALID,1004.89,VALID,0,INVALID,163.701,VALID,0,VALID,23.9937,VALID,5,VALID,0.508594,
2011-02-16, 00:52:04,VALID,1004.87,VALID,0,INVALID,163.701,VALID,0,VALID,23.9955,VALID,5,VALID,0.492578,
2011-02-16, 00:53:04,VALID,1004.88,VALID,0,INVALID,163.716,VALID,0,VALID,23.9742,VALID,5,VALID,0.609375,
2011-02-16, 00:54:04,VALID,1004.87,VALID,0,INVALID,163.693,VALID,0,VALID,23.9955,VALID,5,VALID,0.473437,
2011-02-16, 00:55:04,VALID,1004.85,VALID,0,INVALID,163.708,VALID,0,VALID,23.9955,VALID,5,VALID,0.556641,
2011-02-16, 00:56:04,VALID,1004.83,VALID,0,INVALID,163.723,VALID,0,VALID,24.015,VALID,5,VALID,0.587891,
2011-02-16, 00:57:04,VALID,1004.81,VALID,0,INVALID,163.693,VALID,0,VALID,23.9937,VALID,5,VALID,0.523047,
2011-02-16, 00:58:04,VALID,1004.81,VALID,0,INVALID,163.701,VALID,0,VALID,23.9937,VALID,5,VALID,0.448828,
2011-02-16, 00:59:04,VALID,1004.8,VALID,0,INVALID,163.708,VALID,0,VALID,23.9937,VALID,4,VALID,0.604297,
2011-02-16, 01:00:04,VALID,1004.79,VALID,0,INVALID,163.708,VALID,0,VALID,23.9937,VALID,3,VALID,0.54375,
2011-02-16, 01:01:04,VALID,1004.78,VALID,0,INVALID,163.723,VALID,0,VALID,24.0132,VALID,3,VALID,0.439063,
2011-02-16, 01:02:04,VALID,1004.76,VALID,0,INVALID,163.685,VALID,0,VALID,24.0132,VALID,3,VALID,0.422266,
2011-02-16, 01:03:04,VALID,1004.76,VALID,0,INVALID,163.708,VALID,0,VALID,24.0539,VALID,3,VALID,0.397656,
2011-02-16, 01:04:04,VALID,1004.77,VALID,0,INVALID,163.685,VALID,0,VALID,24.0539,VALID,3,VALID,0.272266,
2011-02-16, 01:05:04,VALID,1004.78,VALID,0,INVALID,163.685,VALID,0,VALID,24.0716,VALID,3,VALID,0.374219,
2011-02-16, 01:06:04,VALID,1004.79,VALID,0,INVALID,163.693,VALID,0,VALID,24.0929,VALID,3,VALID,0.401563,
2011-02-16, 01:07:04,VALID,1004.76,VALID,0,INVALID,163.708,VALID,0,VALID,24.1123,VALID,3,VALID,0.383594,
2011-02-16, 01:08:04,VALID,1004.77,VALID,0,INVALID,163.693,VALID,0,VALID,24.091,VALID,3,VALID,0.491406,
2011-02-16, 01:09:04,VALID,1004.75,VALID,0,INVALID,163.708,VALID,0,VALID,24.1105,VALID,3,VALID,0.462109,
2011-02-16, 01:10:04,VALID,1004.73,VALID,0,INVALID,163.708,VALID,0,VALID,24.1123,VALID,1,VALID,0.418359,
2011-02-16, 01:11:04,VALID,1004.74,VALID,0,INVALID,163.701,VALID,0,VALID,24.1105,VALID,1,VALID,0.530078,
2011-02-16, 01:12:04,VALID,1004.71,VALID,0,INVALID,163.701,VALID,0,VALID,24.091,VALID,1,VALID,0.398047,
2011-02-16, 01:13:04,VALID,1004.68,VALID,0,INVALID,163.693,VALID,0,VALID,24.091,VALID,1,VALID,0.562891,
2011-02-16, 01:14:04,VALID,1004.68,VALID,0,INVALID,163.723,VALID,0,VALID,24.091,VALID,1,VALID,0.562891,
2011-02-16, 01:15:04,VALID,1004.68,VALID,0,INVALID,163.716,VALID,0,VALID,24.091,VALID,1,VALID,0.591797,
2011-02-16, 01:16:04,VALID,1004.68,VALID,0,INVALID,163.708,VALID,0,VALID,24.0716,VALID,1,VALID,0.637891,
2011-02-16, 01:17:04,VALID,1004.7,VALID,0,INVALID,163.716,VALID,0,VALID,24.0716,VALID,1,VALID,0.618359,
2011-02-16, 01:18:04,VALID,1004.63,VALID,0,INVALID,163.708,VALID,0.100563,VALID,24.0734,VALID,1,VALID,0.548047,
2011-02-16, 01:19:04,VALID,1004.62,VALID,0,INVALID,163.708,VALID,0,VALID,24.0326,VALID,1,VALID,0.564844,
2011-02-16, 01:20:04,VALID,1004.62,VALID,0,INVALID,163.708,VALID,0,VALID,24.0326,VALID,1,VALID,0.444531,
2011-02-16, 01:21:04,VALID,1004.59,VALID,0,INVALID,163.746,VALID,0,VALID,24.0326,VALID,1,VALID,0.591016,
2011-02-16, 01:22:04,VALID,1004.59,VALID,0,INVALID,163.701,VALID,0,VALID,24.0345,VALID,1,VALID,0.503516,
2011-02-16, 01:23:04,VALID,1004.55,VALID,0,INVALID,163.723,VALID,0,VALID,23.9937,VALID,1,VALID,0.477734,
2011-02-16, 01:24:04,VALID,1004.55,VALID,0,INVALID,163.716,VALID,0,VALID,24.0132,VALID,1,VALID,0.371094,
2011-02-16, 01:25:04,VALID,1004.57,VALID,0,INVALID,163.723,VALID,0,VALID,23.9937,VALID,1,VALID,0.399609,
2011-02-16, 01:26:04,VALID,1004.57,VALID,0,INVALID,163.731,VALID,0,VALID,24.0132,VALID,1,VALID,0.385547,
2011-02-16, 01:27:04,VALID,1004.58,VALID,0,INVALID,163.701,VALID,0,VALID,24.015,VALID,1,VALID,0.427734,
2011-02-16, 01:28:04,VALID,1004.55,VALID,0,INVALID,163.685,VALID,0,VALID,24.0345,VALID,1,VALID,0.507813,
2011-02-16, 01:29:04,VALID,1004.54,VALID,0,INVALID,163.708,VALID,0,VALID,24.0326,VALID,1,VALID,0.475781,
2011-02-16, 01:30:04,VALID,1004.51,VALID,0,INVALID,163.708,VALID,0,VALID,24.0132,VALID,360,VALID,0.471875,
2011-02-16, 01:31:04,VALID,1004.49,VALID,0,INVALID,163.693,VALID,0,VALID,24.0132,VALID,360,VALID,0.421094,
2011-02-16, 01:32:04,VALID,1004.49,VALID,0,INVALID,163.693,VALID,0,VALID,23.9937,VALID,360,VALID,0.369922,
2011-02-16, 01:33:04,VALID,1004.53,VALID,0,INVALID,163.723,VALID,0,VALID,23.9937,VALID,360,VALID,0.45,
2011-02-16, 01:34:04,VALID,1004.51,VALID,0,INVALID,163.701,VALID,0,VALID,24.0132,VALID,360,VALID,0.358203,
2011-02-16, 01:35:04,VALID,1004.5,VALID,0,INVALID,163.708,VALID,0,VALID,24.0132,VALID,360,VALID,0.470313,
2011-02-16, 01:36:04,VALID,1004.49,VALID,0,INVALID,163.723,VALID,0,VALID,24.0132,VALID,360,VALID,0.357422,
2011-02-16, 01:37:04,VALID,1004.49,VALID,0,INVALID,163.701,VALID,0,VALID,23.9937,VALID,360,VALID,0.339063,
2011-02-16, 01:38:04,VALID,1004.46,VALID,0,INVALID,163.678,VALID,0,VALID,24.0132,VALID,360,VALID,0.374219,
2011-02-16, 01:39:04,VALID,1004.47,VALID,0,INVALID,163.693,VALID,0,VALID,24.0539,VALID,360,VALID,0.357031,
2011-02-16, 01:40:04,VALID,1004.46,VALID,0,INVALID,163.701,VALID,0,VALID,24.0521,VALID,343,VALID,0.275,
2011-02-16, 01:41:04,VALID,1004.39,VALID,0,INVALID,163.685,VALID,0,VALID,24.0716,VALID,343,VALID,0.374219,
2011-02-16, 01:42:04,VALID,1004.39,VALID,0,INVALID,163.678,VALID,0,VALID,24.091,VALID,343,VALID,0.451172,
2011-02-16, 01:43:04,VALID,1004.36,VALID,0,INVALID,163.701,VALID,0,VALID,24.0503,VALID,343,VALID,0.515234,
2011-02-16, 01:44:04,VALID,1004.33,VALID,0,INVALID,163.701,VALID,0,VALID,24.0716,VALID,348,VALID,0.581641,
2011-02-16, 01:45:04,VALID,1004.33,VALID,0,INVALID,163.716,VALID,0,VALID,24.0716,VALID,358,VALID,0.600391,
2011-02-16, 01:46:04,VALID,1004.28,VALID,0,INVALID,163.731,VALID,0,VALID,24.0716,VALID,358,VALID,0.576563,
2011-02-16, 01:47:04,VALID,1004.25,VALID,0,INVALID,163.701,VALID,0,VALID,24.0929,VALID,358,VALID,0.44375,
2011-02-16, 01:48:04,VALID,1004.23,VALID,0,INVALID,163.731,VALID,0,VALID,24.0521,VALID,358,VALID,0.389062,
2011-02-16, 01:49:04,VALID,1004.22,VALID,0,INVALID,163.708,VALID,0,VALID,24.0716,VALID,358,VALID,0.426562,
2011-02-16, 01:50:04,VALID,1004.19,VALID,0,INVALID,163.723,VALID,0,VALID,24.0716,VALID,358,VALID,0.491016,
2011-02-16, 01:51:04,VALID,1004.16,VALID,0,INVALID,163.708,VALID,0,VALID,24.091,VALID,358,VALID,0.566016,
2011-02-16, 01:52:04,VALID,1004.13,VALID,0,INVALID,163.739,VALID,0,VALID,24.091,VALID,1,VALID,0.668359,
2011-02-16, 01:53:04,VALID,1004.17,VALID,0,INVALID,163.716,VALID,0,VALID,24.0716,VALID,8,VALID,0.744922,
2011-02-16, 01:54:04,VALID,1004.16,VALID,0,INVALID,163.708,VALID,0,VALID,24.0716,VALID,11,VALID,0.704297,
2011-02-16, 01:55:04,VALID,1004.17,VALID,0,INVALID,163.685,VALID,0,VALID,24.0521,VALID,11,VALID,0.792188,
2011-02-16, 01:56:04,VALID,1004.15,VALID,0,INVALID,163.678,VALID,0,VALID,24.0929,VALID,11,VALID,0.6,
2011-02-16, 01:57:04,VALID,1004.13,VALID,0,INVALID,163.708,VALID,0,VALID,24.0521,VALID,13,VALID,0.532031,
2011-02-16, 01:58:04,VALID,1004.17,VALID,0,INVALID,163.723,VALID,0,VALID,24.0326,VALID,13,VALID,0.448047,
2011-02-16, 01:59:04,VALID,1004.12,VALID,0,INVALID,163.716,VALID,0.100563,VALID,24.0326,VALID,13,VALID,0.330859,
2011-02-16, 02:00:04,VALID,1004.14,VALID,0,INVALID,163.739,VALID,0,VALID,24.0326,VALID,13,VALID,0.324219,
2011-02-16, 02:01:04,VALID,1004.12,VALID,0,INVALID,163.701,VALID,0,VALID,24.0114,VALID,13,VALID,0.160938,
2011-02-16, 02:02:04,VALID,1004.15,VALID,0,INVALID,163.731,VALID,0,VALID,24.0326,VALID,13,VALID,0.228516,
2011-02-16, 02:03:04,VALID,1004.14,VALID,0,INVALID,163.701,VALID,0,VALID,24.0308,VALID,13,VALID,0.174609,
2011-02-16, 02:04:04,VALID,1004.13,VALID,0,INVALID,163.708,VALID,0,VALID,24.0326,VALID,13,VALID,0.297266,
2011-02-16, 02:05:04,VALID,1004.1,VALID,0,INVALID,163.708,VALID,0,VALID,24.0326,VALID,13,VALID,0.184375,
2011-02-16, 02:06:04,VALID,1004.1,VALID,0,INVALID,163.716,VALID,0,VALID,24.0132,VALID,13,VALID,0,
2011-02-16, 02:07:04,VALID,1004.07,VALID,0,INVALID,163.708,VALID,0,VALID,23.9742,VALID,13,VALID,0.161719,
2011-02-16, 02:08:04,VALID,1004.04,VALID,0,INVALID,163.731,VALID,0,VALID,23.9742,VALID,13,VALID,0.546484,
2011-02-16, 02:09:04,VALID,1004.03,VALID,0,INVALID,163.731,VALID,0,VALID,23.9742,VALID,13,VALID,0.35625,
2011-02-16, 02:10:04,VALID,1004.03,VALID,0,INVALID,163.701,VALID,0.100563,VALID,23.9742,VALID,13,VALID,0.561719,
2011-02-16, 02:11:04,VALID,1003.95,VALID,0,INVALID,163.716,VALID,0,VALID,23.9742,VALID,13,VALID,0.394141,
2011-02-16, 02:12:04,VALID,1003.94,VALID,0,INVALID,163.739,VALID,0,VALID,23.9742,VALID,13,VALID,0.592188,
2011-02-16, 02:13:04,VALID,1003.95,VALID,0,INVALID,163.701,VALID,0,VALID,23.9937,VALID,13,VALID,0.567187,
2011-02-16, 02:14:04,VALID,1003.9,VALID,0,INVALID,163.708,VALID,0.100563,VALID,23.9742,VALID,13,VALID,0.300391,
2011-02-16, 02:15:04,VALID,1003.89,VALID,0,INVALID,163.708,VALID,0,VALID,23.9742,VALID,13,VALID,0.224219,
2011-02-16, 02:16:04,VALID,1003.86,VALID,0,INVALID,163.708,VALID,0,VALID,23.9548,VALID,13,VALID,0.292188,
2011-02-16, 02:17:04,VALID,1003.85,VALID,0,INVALID,163.739,VALID,0,VALID,23.9548,VALID,13,VALID,0.375,
2011-02-16, 02:18:04,VALID,1003.86,VALID,0,INVALID,163.716,VALID,0,VALID,23.9761,VALID,13,VALID,0.361328,
2011-02-16, 02:19:04,VALID,1003.81,VALID,0,INVALID,163.708,VALID,0,VALID,23.9548,VALID,13,VALID,0.325391,
2011-02-16, 02:20:04,VALID,1003.8,VALID,0,INVALID,163.716,VALID,0,VALID,23.9548,VALID,13,VALID,0.364062,
2011-02-16, 02:21:04,VALID,1003.82,VALID,0,INVALID,163.731,VALID,0,VALID,23.9548,VALID,13,VALID,0.230469,
2011-02-16, 02:22:04,VALID,1003.83,VALID,0,INVALID,163.693,VALID,0,VALID,23.9548,VALID,13,VALID,0.282031,
2011-02-16, 02:23:04,VALID,1003.79,VALID,0,INVALID,163.716,VALID,0,VALID,23.914,VALID,13,VALID,0.501172,
2011-02-16, 02:24:04,VALID,1003.81,VALID,0,INVALID,163.685,VALID,0,VALID,23.9159,VALID,13,VALID,0.359375,
2011-02-16, 02:25:04,VALID,1003.8,VALID,0,INVALID,163.723,VALID,0.100563,VALID,23.8964,VALID,13,VALID,0.257422,
2011-02-16, 02:26:04,VALID,1003.79,VALID,0,INVALID,163.731,VALID,0,VALID,23.8769,VALID,13,VALID,0.304297,
2011-02-16, 02:27:04,VALID,1003.79,VALID,0,INVALID,163.731,VALID,0,VALID,23.8769,VALID,13,VALID,0.190234,
2011-02-16, 02:28:04,VALID,1003.77,VALID,0,INVALID,163.708,VALID,0,VALID,23.8556,VALID,13,VALID,0.236328,
2011-02-16, 02:29:04,VALID,1003.79,VALID,0,INVALID,163.731,VALID,0,VALID,23.8769,VALID,13,VALID,0.292578,
2011-02-16, 02:30:04,VALID,1003.79,VALID,0,INVALID,163.693,VALID,0,VALID,23.8575,VALID,13,VALID,0.417969,
2011-02-16, 02:31:04,VALID,1003.8,VALID,0,INVALID,163.731,VALID,0,VALID,23.838,VALID,13,VALID,0.253906,
2011-02-16, 02:32:04,VALID,1003.79,VALID,0,INVALID,163.708,VALID,0,VALID,23.838,VALID,13,VALID,0.414453,
2011-02-16, 02:33:04,VALID,1003.79,VALID,0,INVALID,163.739,VALID,0,VALID,23.8203,VALID,13,VALID,0.391016,
2011-02-16, 02:34:04,VALID,1003.8,VALID,0,INVALID,163.693,VALID,0,VALID,23.7796,VALID,13,VALID,0.419531,
2011-02-16, 02:35:04,VALID,1003.8,VALID,0,INVALID,163.723,VALID,0,VALID,23.7796,VALID,13,VALID,0.404297,
2011-02-16, 02:36:04,VALID,1003.81,VALID,0,INVALID,163.716,VALID,0,VALID,23.7796,VALID,13,VALID,0.152734,
2011-02-16, 02:37:04,VALID,1003.81,VALID,0,INVALID,163.731,VALID,0,VALID,23.7601,VALID,13,VALID,0.416406,
2011-02-16, 02:38:04,VALID,1003.82,VALID,0,INVALID,163.731,VALID,0,VALID,23.7601,VALID,13,VALID,0.335156,
2011-02-16, 02:39:04,VALID,1003.79,VALID,0,INVALID,163.723,VALID,0,VALID,23.7601,VALID,13,VALID,0.350781,
2011-02-16, 02:40:04,VALID,1003.79,VALID,0,INVALID,163.716,VALID,0,VALID,23.7194,VALID,13,VALID,0.372656,
2011-02-16, 02:41:04,VALID,1003.78,VALID,0,INVALID,163.746,VALID,0,VALID,23.7407,VALID,13,VALID,0.237891,
2011-02-16, 02:42:04,VALID,1003.75,VALID,0,INVALID,163.739,VALID,0.100563,VALID,23.7212,VALID,13,VALID,0.246875,
2011-02-16, 02:43:04,VALID,1003.7,VALID,0,INVALID,163.739,VALID,0,VALID,23.7017,VALID,13,VALID,0,
2011-02-16, 02:44:04,VALID,1003.71,VALID,0,INVALID,163.723,VALID,0,VALID,23.6841,VALID,13,VALID,0,
2011-02-16, 02:45:04,VALID,1003.68,VALID,0,INVALID,163.731,VALID,0,VALID,23.6823,VALID,13,VALID,0,
2011-02-16, 02:46:04,VALID,1003.65,VALID,0,INVALID,163.731,VALID,0,VALID,23.6823,VALID,13,VALID,0.182031,
2011-02-16, 02:47:04,VALID,1003.64,VALID,0,INVALID,163.754,VALID,0,VALID,23.6823,VALID,13,VALID,0.190625,
2011-02-16, 02:48:04,VALID,1003.63,VALID,0,INVALID,163.777,VALID,0.100563,VALID,23.6823,VALID,13,VALID,0,
2011-02-16, 02:49:04,VALID,1003.62,VALID,0,INVALID,163.739,VALID,0,VALID,23.6628,VALID,13,VALID,0,
2011-02-16, 02:50:04,VALID,1003.61,VALID,0,INVALID,163.723,VALID,0,VALID,23.6434,VALID,13,VALID,0,
2011-02-16, 02:51:04,VALID,1003.58,VALID,0,INVALID,163.739,VALID,0,VALID,23.6044,VALID,13,VALID,0,
2011-02-16, 02:52:04,VALID,1003.59,VALID,0,INVALID,163.731,VALID,0,VALID,23.6044,VALID,13,VALID,0,
2011-02-16, 02:53:04,VALID,1003.54,VALID,0,INVALID,163.723,VALID,0,VALID,23.6044,VALID,13,VALID,0,
2011-02-16, 02:54:04,VALID,1003.55,VALID,0,INVALID,163.746,VALID,0,VALID,23.5478,VALID,13,VALID,0,
2011-02-16, 02:55:04,VALID,1003.55,VALID,0,INVALID,163.754,VALID,0,VALID,23.546,VALID,13,VALID,0,
2011-02-16, 02:56:04,VALID,1003.51,VALID,0,INVALID,163.746,VALID,0,VALID,23.546,VALID,13,VALID,0.2375,
2011-02-16, 02:57:04,VALID,1003.55,VALID,0,INVALID,163.731,VALID,0,VALID,23.585,VALID,13,VALID,0.0207031,
2011-02-16, 02:58:04,VALID,1003.54,VALID,0,INVALID,163.769,VALID,0,VALID,23.5443,VALID,13,VALID,0.0691406,
2011-02-16, 02:59:04,VALID,1003.54,VALID,0,INVALID,163.731,VALID,0,VALID,23.5868,VALID,13,VALID,0.164844,
2011-02-16, 03:00:04,VALID,1003.56,VALID,0,INVALID,163.739,VALID,0,VALID,23.546,VALID,14,VALID,0.666406,
2011-02-16, 03:01:04,VALID,1003.54,VALID,0,INVALID,163.762,VALID,0,VALID,23.546,VALID,17,VALID,0.620703,
2011-02-16, 03:02:04,VALID,1003.52,VALID,0,INVALID,163.746,VALID,0.100563,VALID,23.5071,VALID,17,VALID,0.598828,
2011-02-16, 03:03:04,VALID,1003.53,VALID,0,INVALID,163.754,VALID,0.100563,VALID,23.5284,VALID,17,VALID,0.367188,
2011-02-16, 03:04:04,VALID,1003.52,VALID,0,INVALID,163.777,VALID,0,VALID,23.4894,VALID,17,VALID,0.549219,
2011-02-16, 03:05:04,VALID,1003.5,VALID,0,INVALID,163.754,VALID,0,VALID,23.4487,VALID,17,VALID,0.403906,
2011-02-16, 03:06:04,VALID,1003.54,VALID,0,INVALID,163.762,VALID,0,VALID,23.4293,VALID,17,VALID,0.251953,
2011-02-16, 03:07:04,VALID,1003.54,VALID,0,INVALID,163.777,VALID,0,VALID,23.3904,VALID,17,VALID,0.305078,
2011-02-16, 03:08:04,VALID,1003.53,VALID,0,INVALID,163.746,VALID,0,VALID,23.3904,VALID,17,VALID,0.297656,
2011-02-16, 03:09:04,VALID,1003.53,VALID,0,INVALID,163.762,VALID,0,VALID,23.332,VALID,17,VALID,0.390625,
2011-02-16, 03:10:04,VALID,1003.53,VALID,0,INVALID,163.754,VALID,0,VALID,23.3125,VALID,17,VALID,0.177734,
2011-02-16, 03:11:04,VALID,1003.56,VALID,0,INVALID,163.754,VALID,0.100563,VALID,23.2736,VALID,17,VALID,0.179297,
2011-02-16, 03:12:04,VALID,1003.54,VALID,0,INVALID,163.754,VALID,0.100563,VALID,23.2541,VALID,17,VALID,0,
2011-02-16, 03:13:04,VALID,1003.56,VALID,0,INVALID,163.762,VALID,0,VALID,23.2524,VALID,17,VALID,0,
2011-02-16, 03:14:04,VALID,1003.56,VALID,0,INVALID,163.762,VALID,0.100563,VALID,23.2541,VALID,17,VALID,0,
2011-02-16, 03:15:04,VALID,1003.55,VALID,0,INVALID,163.769,VALID,0.100563,VALID,23.2541,VALID,17,VALID,0,
2011-02-16, 03:16:04,VALID,1003.57,VALID,0,INVALID,163.792,VALID,0.100563,VALID,23.2736,VALID,17,VALID,0.0433594,
2011-02-16, 03:17:04,VALID,1003.55,VALID,0,INVALID,163.754,VALID,0,VALID,23.2134,VALID,17,VALID,0,
2011-02-16, 03:18:04,VALID,1003.57,VALID,0,INVALID,163.769,VALID,0.100563,VALID,23.194,VALID,17,VALID,0.208594,
2011-02-16, 03:19:04,VALID,1003.56,VALID,0,INVALID,163.762,VALID,0,VALID,23.2347,VALID,18,VALID,0.447656,
2011-02-16, 03:20:04,VALID,1003.58,VALID,0,INVALID,163.777,VALID,0.100563,VALID,23.194,VALID,18,VALID,0.432031,
2011-02-16, 03:21:04,VALID,1003.59,VALID,0,INVALID,163.762,VALID,0.100563,VALID,23.194,VALID,18,VALID,0.421094,
2011-02-16, 03:22:04,VALID,1003.59,VALID,0,INVALID,163.769,VALID,0.100563,VALID,23.1957,VALID,18,VALID,0.456641,
2011-02-16, 03:23:04,VALID,1003.59,VALID,0,INVALID,163.769,VALID,0.100563,VALID,23.1957,VALID,18,VALID,0.246875,
2011-02-16, 03:24:04,VALID,1003.57,VALID,0,INVALID,163.762,VALID,0,VALID,23.1745,VALID,18,VALID,0.201953,
2011-02-16, 03:25:04,VALID,1003.57,VALID,0,INVALID,163.762,VALID,0,VALID,23.1763,VALID,18,VALID,0.0765625,
2011-02-16, 03:26:04,VALID,1003.58,VALID,0,INVALID,163.754,VALID,0,VALID,23.1763,VALID,18,VALID,0,
2011-02-16, 03:27:04,VALID,1003.58,VALID,0,INVALID,163.762,VALID,0,VALID,23.217,VALID,18,VALID,0.146484,
2011-02-16, 03:28:04,VALID,1003.6,VALID,0,INVALID,163.769,VALID,0.100563,VALID,23.1957,VALID,18,VALID,0.403125,
2011-02-16, 03:29:04,VALID,1003.58,VALID,0,INVALID,163.739,VALID,0,VALID,23.217,VALID,18,VALID,0.258203,
2011-02-16, 03:30:04,VALID,1003.59,VALID,0,INVALID,163.784,VALID,0.100563,VALID,23.2152,VALID,18,VALID,0.373047,
2011-02-16, 03:31:04,VALID,1003.58,VALID,0,INVALID,163.754,VALID,0,VALID,23.2152,VALID,18,VALID,0.342578,
2011-02-16, 03:32:04,VALID,1003.58,VALID,0,INVALID,163.769,VALID,0.100563,VALID,23.2152,VALID,18,VALID,0.40625,
2011-02-16, 03:33:04,VALID,1003.6,VALID,0,INVALID,163.762,VALID,0.100563,VALID,23.194,VALID,18,VALID,0.396484,
2011-02-16, 03:34:04,VALID,1003.63,VALID,0,INVALID,163.784,VALID,0.100563,VALID,23.2152,VALID,18,VALID,0.441797,
2011-02-16, 03:35:04,VALID,1003.63,VALID,0,INVALID,163.792,VALID,0,VALID,23.2152,VALID,18,VALID,0.341406,
2011-02-16, 03:36:04,VALID,1003.61,VALID,0,INVALID,163.792,VALID,0,VALID,23.194,VALID,18,VALID,0.174219,
2011-02-16, 03:37:04,VALID,1003.62,VALID,0,INVALID,163.792,VALID,0,VALID,23.2364,VALID,18,VALID,0.00585938,
2011-02-16, 03:38:04,VALID,1003.63,VALID,0,INVALID,163.792,VALID,0.100563,VALID,23.1957,VALID,18,VALID,0,
2011-02-16, 03:39:04,VALID,1003.63,VALID,0,INVALID,163.792,VALID,0,VALID,23.2152,VALID,18,VALID,0.197266,
2011-02-16, 03:40:04,VALID,1003.62,VALID,0,INVALID,163.762,VALID,0.100563,VALID,23.2152,VALID,18,VALID,0.362891,
2011-02-16, 03:41:04,VALID,1003.59,VALID,0,INVALID,163.777,VALID,0,VALID,23.2152,VALID,18,VALID,0.355078,